www.pogodaiklimat.ru
Время
(UTC), дата
10:00 31.12
10:23 31.12
10:32 31.12
10:53 31.12
11:03 31.12
11:14 31.12
11:45 31.12
11:53 31.12
12:00 31.12
12:27 31.12
12:35 31.12
12:53 31.12
13:00 31.12
13:09 31.12
13:31 31.12
13:53 31.12
14:17 31.12
14:48 31.12
14:53 31.12
15:09 31.12
15:23 31.12
15:51 31.12
15:52 31.12
16:09 31.12
16:16 31.12
16:26 31.12
16:37 31.12
16:45 31.12
16:53 31.12
17:27 31.12
17:43 31.12
17:53 31.12
17:57 31.12
18:12 31.12
18:17 31.12
18:21 31.12
18:43 31.12
18:50 31.12
18:53 31.12
19:06 31.12
19:24 31.12
19:53 31.12
20:30 31.12
20:53 31.12
21:27 31.12
21:41 31.12
21:48 31.12
21:53 31.12
Ветер
(напр.,м/с)
Видим. Явления Облачность Т
(С)
Тd
(С)
f
(%)
Тe
(С)
Тes
(С)
Комфортность P
(гПа)
Po
(гПа)
Тmin
(С)
Tmax
(С)
R
(мм)
R24
(мм)
S
(см)
ЮЗ 8
{11}
2 км слабый снег, дымка 10/10 420 м -2.8 -4.4 89 -11 -11 966.2
ЮЗ 8
{12}
2 км слабый снег, дымка 10/10 330 м -2.8 -5.0 85 -12 -12 966.6
ЮЗ 7
{13}
2 км слабый снег, дымка 10/10 390 м -2.8 -5.0 85 -11 -11 966.6
ЮЗ 7 3 км слабый снег, дымка 10/10 300 м -2.8 -5.0 85 -11 -11 998.6 966.9 -2.8 -0.6 2.5
ЮЗ 9
{11}
3 км слабый снег, дымка 10/10 390 м -2.8 -5.0 85 -12 -12 966.9
ЮЗ 6
{11}
5 км слабый снег, дымка 10/10 390 м -2.8 -5.0 85 -11 -11 967.2
ЮЗ 8
{12}
4 км слабый снег 10/10 450 м -2.8 -5.6 81 -12 -12 967.6
ЮЗ 8 4 км слабый снег 10/10 420 м -2.8 -5.6 81 -12 -12 999.2 967.6
ЮЗ 7 6 км слабый снег, дымка 10/10 420 м -2.8 -5.0 85 -11 -11 967.6
ЮЗ 7 3 км слабый снег, дымка 10/10 480 м -2.8 -5.0 85 -11 -11 967.9
ЮЗ 8
{12}
2 км слабый снег, дымка 10/10 510 м -2.8 -5.0 85 -12 -12 967.9
ЮЗ 7 3 км слабый снег, дымка 10/10 540 м -2.8 -5.0 85 -11 -11 1000.0 968.2
ЮЗ 7
{11}
3 км слабый снег, дымка 10/10 480 м -2.8 -5.0 85 -11 -11 968.2
ЮЗ 8
{11}
2 км слабый снег, дымка 10/10 390 м -2.8 -5.0 85 -12 -12 968.5
ЮЗ 8 4 км слабый снег, дымка 10/10 540 м -2.8 -5.0 85 -12 -12 968.9
ЮЗ 9
{13}
5 км слабый снег, дымка 10/10 450 м -2.8 -5.0 85 -12 -12 1000.9 969.2
З 7
{11}
3 км слабый снег 10/10 480 м -2.2 -5.0 81 -10 -10 969.5
З 6 3 км слабый снег 10/10 390 м -2.0 -5.0 80 -10 -10 969.9
З 8 3 км слабый снег 10/10 390 м -2.2 -5.0 81 -11 -11 1001.8 970.2
З 6 5 км слабый снег 10/10 390 м -2.2 -5.0 81 -10 -10 970.2
З 8
{11}
3 км слабый снег 10/10 420 м -2.2 -5.0 81 -11 -11 970.5
З 7 2 км слабый снег, дымка 10/10 450 м -2.0 -4.0 86 -10 -10 970.5
З 7 2 км слабый снег, дымка 10/10 450 м -2.2 -4.4 85 -10 -10 1002.3 970.5
З 7 2 км слабый снег, дымка 10/10 390 м -2.2 -4.4 85 -10 -10 970.5
З 7 2 км слабый снег, дымка 10/10 450 м -2.2 -4.4 85 -10 -10 970.5
З 7 4 км слабый снег, дымка 10/10 450 м -2.2 -4.4 85 -10 -10 970.5
З 7 5 км слабый снег 10/10 390 м -1.7 -5.0 78 -10 -10 970.8
З 9
{13}
10 км слабый снег 10/10 390 м -1.7 -5.0 78 -11 -11 970.8
З 9
{13}
8 км слабый снег 10/10 480 м -1.7 -5.6 75 -10 -10 1002.5 970.8 -2.8 -1.7
З 9
{14}
3 км слабый снег 10/10 570 м -2.2 -5.6 77 -11 -11 971.2
З 8 3 км слабый снег 10/10 570 м -2.2 -5.6 77 -10 -10 971.2
З 7
{11}
5 км слабый снег 10/10 510 м -2.2 -5.6 77 -10 -10 1002.9 971.2
З 9
{12}
4 км слабый снег 10/10 510 м -2.2 -5.6 77 -11 -11 971.2
З 8 2 км слабый снег 10/10 510 м -2.2 -5.6 77 -11 -11 971.2
З 7 3 км слабый снег 10/10 510 м -2.2 -5.6 77 -10 -10 971.2
З 7 5 км слабый снег 10/10 510 м -2.2 -5.6 77 -10 -10 971.2
З 7
{12}
4 км слабый снег 10/10 600 м -2.2 -5.6 77 -10 -10 971.5
З 8 6 км слабый снег 10/10 660 м -2.0 -6.0 74 -10 -10 971.5
З 8 6 км слабый снег 10/10 600 м -2.2 -6.1 75 -10 -10 1003.5 971.5
З 6
{13}
3 км слабый снег 10/10 600 м -2.2 -5.6 77 -10 -10 971.8
З 7 8 км слабый снег 10/10 570 м -2.2 -5.6 77 -10 -10 972.2
З 7 14 км 10/10 480 м -2.2 -5.6 77 -10 -10 1004.5 972.5
З 6 11 км слабый снег 10/10 600 м -2.2 -5.6 77 -10 -10 973.1
З 7 16 км 10/10 600 м -2.2 -5.6 77 -10 -10 1005.4 973.5
З 7 8 км слабый снег 10/10 480 м -2.2 -5.0 81 -10 -10 974.1
З 6 4 км слабый снег 10/10 390 м -2.2 -5.0 81 -10 -10 974.1
З 6 6 км слабый снег 10/10 450 м -2.0 -5.0 80 -10 -10 974.1
З 5 6 км слабый снег 10/10 450 м -2.2 -5.0 81 -9 -9 1006.2 974.1
Местоположение метеостанции Capital City Airport: широта 42.7803 долгота -84.5789 высота над уровнем моря 262 м.
В архиве по умолчанию представлена погода в Лансинге за последние 1-2 суток. Обновление информации о фактической погоде в базе происходит ежечасно! Архивные данные за месяц целиком и за предыдущие месяцы Вы можете получить, выбрав интересующий диапазон дат из раскрывающегося списка и нажав кнопку "Ввод!".
Внимание! Архив погоды МЕТАР в базе сайта по станциям, не включенным в климатический монитор, хранится не более 60 дней. Нет смысла пытаться выбрать более раннюю дату.
*Определитесь, кто Вы:
Внимание! Время в таблицах - всемирное. Для получения местного времени необходимо прибавить поправку, которая равна ч.
Смотрите также архив погоды в соседних городах и на ближайших метеорологических станциях:
Партнеры нашего сайта:      
Пояснения к столбцам:
  • Ветер - указаны скорость ветра в м/с - средняя за 10 мин, порывы в срок и между сроками (в фигурных скобках) и направление, откуда дует ветер: С - северный,
  • СВ - северо-восточный, В - восточный, ЮВ - юго-восточный, Ю - южный, ЮЗ - юго-западный, З - западный, СЗ - северо-западный.
  • Видимость - горизонтальная дальность видимости в метрах или километрах. При видимости от 1 до 10 км при отсутствии осадков обычно наблюдается дымка, при ухудшении видимости до 1 км и менее - туман. В сухую погоду видимость может ухудшаться дымом, пылью или мглою.
  • Явления - указаны атмосферные явления, наблюдавшиеся в срок или в последний час перед сроком; фигурными скобками обозначены явления, наблюдавшиеся между сроками (за 1-3 часа до срока); квадратными скобками обозначены град или гололедные отложения с указанием их диаметра в мм.
  • Облачность - указаны через наклонную черту общая и нижняя облачность в баллах и высота нижней границы облаков в метрах; квадратными скобками обозначены формы облаков: Ci - перистые, Cs - перисто-слоистые, Cc - перисто-кучевые, Ac - высококучевые, As - высокослоистые, Sc - слоисто-кучевые, Ns - слоисто-дождевые, Cu - кучевые, Cb - кучево-дождевые. Подробнее классификацию облаков см. в Атласе облаков (PDF).
  • T - Температура воздуха - температура, измеренная на высоте 2 м над землей.
  • Td - Температура точки росы - температура, при понижении до которой содержащийся в воздухе водяной пар достигнет насыщения.
  • f - Относительная влажность воздуха - влажноcть воздуха, измеренная на высоте 2 м над землей.
  • Te - Эффективная температура - температура, которую ощущает одетый по сезону человек в тени. Характеристика душности погоды. При расчете учитывается влияние влажности воздуха и скорости ветра на теплоощущения человека.
  • Tes - Эффективная температура на солнце - температура, которую ощущает человек, с поправкой на солнечный нагрев. Характеристика знойности погоды. Зависит от высоты солнца над горизонтом, облачности и скорости ветра. Ночью, в пасмурную погоду, а также при ветре 12 м/с и более поправка равна нулю.
  • P - Атмосферное давление - приведенное к уровню моря атмосферное давление.
  • Po - Атмосферное давление - измеренное на уровне метеостанции атмосферное давление.
  • Tmin - Минимальная температура - минимум температуры воздуха на высоте 2 м над землей.
  • Tmax - Максимальная температура - максимум температуры воздуха на высоте 2 м над землей.
  • R - Количество осадков - Количество выпавших осадков за период времени, мм. При наведении курсора мыши на число - период времени, за который выпало указанное количество осадков.
  • R24 - Количество осадков - Количество выпавших осадков за 24 часа, мм.
  • S - Снежный покров - Высота снежного покрова, см. При наведении курсора мыши на число - состояние снежного покрова и степень покрытия местности в баллах.